Hourly Data Report for October 19, 2014

All times are specified in Local Standard Time (LST). Add 1 hour to adjust for Daylight Saving Time where and when it is observed.

WINNIPEG A CS
MANITOBA

49°55'00.000" N
97°14'58.000" W
238.70 m
502S001
71849
XWG

Download Data

Hourly Data (October 2014)
Hourly Data Report for October 19, 2014
Temp Definition
°C
Dew Point Temp Definition
°C
Rel Hum Definition
%
Wind Dir Definition
10's deg

Wind Spd Definition
km/h
Visibility Definition
km
Stn Press Definition
kPa
Hmdx Definition


Wind Chill Definition


Weather Definition


TIME
00:00 5.6 3.2 85 17 25   98.02     LegendNANA
01:00 5.7 3.4 85 18 24   97.94     LegendNANA
02:00 5.8 3.5 85 18 22   97.85     LegendNANA
03:00 5.5 3.3 86 18 20   97.80     LegendNANA
04:00 5.3 3.3 87 18 20   97.76     LegendNANA
05:00 4.3 2.7 89 20 6   97.76     LegendNANA
06:00 3.8 2.5 91 20 13   97.75     LegendNANA
07:00 3.1 2.1 93 23 10   97.78     LegendNANA
08:00 4.5 3.0 90 27 12   97.82     LegendNANA
09:00 7.4 4.9 84 31 19   97.89     LegendNANA
10:00 10.4 6.1 75 32 21   97.96     LegendNANA
11:00 13.0 6.0 63 33 29   98.00     LegendNANA
12:00 15.0 6.0 55 33 28   98.01     LegendNANA
13:00 15.7 6.3 53 31 26   98.02     LegendNANA
14:00 16.2 5.6 50 32 24   98.05     LegendNANA
15:00 16.9 5.4 47 32 24   98.07     LegendNANA
16:00 17.4 5.5 45 32 28   98.09     LegendNANA
17:00 15.5 4.5 48 31 27   98.17     LegendNANA
18:00 13.1 4.6 56 33 24   98.24     LegendNANA
19:00 9.0 3.3 68 32 13   98.29     LegendNANA
20:00 6.3 2.5 77 35 11   98.36     LegendNANA
21:00 3.5 0.6 82 35 10   98.40     LegendNANA
22:00 6.2 3.5 83 4 11   98.48     LegendNANA
23:00 4.6 3.7 94 36 2   98.54     LegendNANA

Notes on Data Quality.

Legend

  • E = Estimated
  • M = Missing
  • NA = Not Available
  • ‡ = Partner data that is not subject to review by the National Climate Archives
Date modified: